Weather in Cobija

Bolivia     11°01′19″S   68°45′28″W
temp.,
°C
wind,
m/s
gust,
m/s
humid.,
%
clouds,
%
prec.,
mm/h
press.,
hPa
HPBL,
m
12 august, fri
fri1223:00+20s00714 0.0 101611
02:00+19s00755 0.0 101511
05:00+18ese007826 0.0 101511
08:00+21ene01725 0.0 101678
11:00+30nnw12440 0.0 1017958
14:00+33nw23370 0.0 10121916
17:00+32nnw134116 0.0 10102098
20:00+25n11670 0.0 101120
13 august, sat
sat1323:00+24nw11680 0.0 101311
02:00+23wnw11721 0.0 101211
05:00+22wnw11765 0.0 101211
08:00+23nnw127125 0.0 1014107
11:00+32nnw244267 0.0 10151168
14:00+34n243397 0.0 10122655
17:00+28wnw1154100 0.0 101031
20:00+25w11635 0.0 101114
14 august, sun
sun1423:00+23wsw23685 0.0 101358
02:00+22wsw14715 0.0 101178
05:00+22w11745 0.0 101029
08:00+23nw12695 0.0 101384
11:00+32nw23391 0.0 1014951
14:00+36nw24275 0.0 10102665
17:00+35nw24285 0.0 10071674
20:00+26nnw11516 0.0 100911
15 august, mon
mon1523:00+25w11545 0.0 100914
02:00+24wnw13575 0.0 100852
05:00+22nw14646 0.0 100989
08:00+24wnw17615 0.0 1011182
11:00+33nw25360 0.0 10111103
14:00+36nw35270 0.0 10072680
17:00+35nnw25305 0.0 10052878
20:00+27nnw115186 0.0 100723
16 august, tue
tue1623:00+25nnw2556100 0.0 1008104
02:00+24nnw176723 0.0 1008159
05:00+22nnw19755 0.0 1009243
08:00+25nw2107018 0.0 1011297
11:00+33nw364115 0.0 10111422
14:00+37nw35285 0.0 10073262
17:00+34n35394 0.0 10061304
20:00+27n16572 0.0 1007123